PRIVATE WETTERSTATION BILLIGHEIM-ALLFELD                       ZURCK
Wetterdaten: Samstag, 15.01.2022
Datum Zeit Temp. A. Temp. A. min Temp. A. max Feuchte A. Luftdruck Regen Wind Richtung Richtung Sonnenschein ET Solar Taupunkt Windchill Windben Empfang
15.01.2022 00:00 -3,0 C -3,0 C -2,9 C 93 % 1032,4 hPa 0,0 l/m 0,0 km/h (0 Bft) N 0 0 min 0,000 mm 0 W/m -4,0 C -3,0 C 0,0 km/h (0 Bft) 100 %
15.01.2022 00:10 -3,1 C -3,1 C -3,0 C 93 % 1032,3 hPa 0,0 l/m 0,0 km/h (0 Bft) N 0 0 min 0,000 mm 0 W/m -4,1 C -3,1 C 0,0 km/h (0 Bft) 100 %
15.01.2022 00:20 -3,1 C -3,1 C -3,0 C 93 % 1032,4 hPa 0,0 l/m 0,0 km/h (0 Bft) N 0 0 min 0,000 mm 0 W/m -4,1 C -3,1 C 0,0 km/h (0 Bft) 100 %
15.01.2022 00:30 -3,2 C -3,2 C -3,1 C 93 % 1032,3 hPa 0,0 l/m 0,0 km/h (0 Bft) N 0 0 min 0,000 mm 0 W/m -4,2 C -3,2 C 0,0 km/h (0 Bft) 100 %
15.01.2022 00:40 -3,3 C -3,3 C -3,2 C 93 % 1032,1 hPa 0,0 l/m 0,0 km/h (0 Bft) N 0 0 min 0,000 mm 0 W/m -4,3 C -3,3 C 0,0 km/h (0 Bft) 100 %
15.01.2022 00:50 -3,4 C -3,4 C -3,3 C 92 % 1032,1 hPa 0,0 l/m 0,0 km/h (0 Bft) N 0 0 min 0,000 mm 0 W/m -4,5 C -3,4 C 0,0 km/h (0 Bft) 99 %
15.01.2022 01:00 -3,5 C -3,5 C -3,4 C 92 % 1032,1 hPa 0,0 l/m 0,0 km/h (0 Bft) N 0 0 min 0,000 mm 0 W/m -4,6 C -3,5 C 0,0 km/h (0 Bft) 100 %
15.01.2022 01:10 -3,6 C -3,6 C -3,5 C 92 % 1032,1 hPa 0,0 l/m 0,0 km/h (0 Bft) N 0 0 min 0,000 mm 0 W/m -4,7 C -3,6 C 0,0 km/h (0 Bft) 100 %
15.01.2022 01:20 -3,6 C -3,6 C -3,6 C 92 % 1032,0 hPa 0,0 l/m 0,0 km/h (0 Bft) N 0 0 min 0,000 mm 0 W/m -4,7 C -3,6 C 0,0 km/h (0 Bft) 100 %
15.01.2022 01:30 -3,6 C -3,6 C -3,5 C 92 % 1032,0 hPa 0,0 l/m 0,0 km/h (0 Bft) N 0 0 min 0,000 mm 0 W/m -4,7 C -3,6 C 0,0 km/h (0 Bft) 100 %
15.01.2022 01:40 -3,5 C -3,6 C -3,5 C 92 % 1032,0 hPa 0,0 l/m 0,0 km/h (0 Bft) N 0 0 min 0,000 mm 0 W/m -4,6 C -3,5 C 0,0 km/h (0 Bft) 100 %
15.01.2022 01:50 -2,8 C -3,5 C -2,8 C 92 % 1032,0 hPa 0,0 l/m 1,6 km/h (1 Bft) S-SO 157 0 min 0,000 mm 0 W/m -3,9 C -2,8 C 3,2 km/h (1 Bft) 100 %
15.01.2022 02:00 -2,3 C -2,8 C -2,3 C 92 % 1031,8 hPa 0,0 l/m 0,0 km/h (0 Bft) S-SO 157 0 min 0,000 mm 0 W/m -3,4 C -2,3 C 3,2 km/h (1 Bft) 100 %
15.01.2022 02:10 -2,1 C -2,3 C -2,1 C 92 % 1031,8 hPa 0,0 l/m 0,0 km/h (0 Bft) N 0 0 min 0,000 mm 0 W/m -3,2 C -2,1 C 0,0 km/h (0 Bft) 100 %
15.01.2022 02:20 -2,1 C -2,1 C -2,1 C 92 % 1031,8 hPa 0,0 l/m 0,0 km/h (0 Bft) N 0 0 min 0,000 mm 0 W/m -3,2 C -2,1 C 0,0 km/h (0 Bft) 100 %
15.01.2022 02:30 -2,0 C -2,1 C -1,9 C 92 % 1031,9 hPa 0,0 l/m 0,0 km/h (0 Bft) SO 135 0 min 0,000 mm 0 W/m -3,1 C -2,0 C 4,8 km/h (1 Bft) 100 %
15.01.2022 02:40 -2,0 C -2,0 C -2,0 C 92 % 1031,8 hPa 0,0 l/m 3,2 km/h (1 Bft) O-SO 112 0 min 0,000 mm 0 W/m -3,1 C -2,0 C 6,4 km/h (2 Bft) 100 %
15.01.2022 02:50 -2,2 C -2,2 C -2,0 C 92 % 1031,8 hPa 0,0 l/m 3,2 km/h (1 Bft) NO 45 0 min 0,000 mm 0 W/m -3,3 C -2,2 C 8,0 km/h (2 Bft) 100 %
15.01.2022 03:00 -2,2 C -2,2 C -2,2 C 92 % 1031,8 hPa 0,0 l/m 0,0 km/h (0 Bft) NO 45 0 min 0,000 mm 0 W/m -3,3 C -2,2 C 6,4 km/h (2 Bft) 100 %
15.01.2022 03:10 -2,2 C -2,2 C -2,2 C 92 % 1031,7 hPa 0,0 l/m 0,0 km/h (0 Bft) NO 45 0 min 0,000 mm 0 W/m -3,3 C -2,2 C 6,4 km/h (2 Bft) 89 %
15.01.2022 03:20 -2,1 C -2,2 C -2,1 C 92 % 1031,6 hPa 0,0 l/m 0,0 km/h (0 Bft) N 0 0 min 0,000 mm 0 W/m -3,2 C -2,1 C 0,0 km/h (0 Bft) 100 %
15.01.2022 03:30 -2,1 C -2,1 C -2,1 C 92 % 1031,4 hPa 0,0 l/m 0,0 km/h (0 Bft) N 0 0 min 0,000 mm 0 W/m -3,2 C -2,1 C 0,0 km/h (0 Bft) 100 %
15.01.2022 03:40 -2,1 C -2,1 C -2,1 C 92 % 1031,4 hPa 0,0 l/m 0,0 km/h (0 Bft) N 0 0 min 0,000 mm 0 W/m -3,2 C -2,1 C 0,0 km/h (0 Bft) 100 %
15.01.2022 03:50 -1,9 C -2,1 C -1,9 C 92 % 1031,2 hPa 0,0 l/m 0,0 km/h (0 Bft) NO 45 0 min 0,000 mm 0 W/m -3,0 C -1,9 C 4,8 km/h (1 Bft) 100 %
15.01.2022 04:00 -1,9 C -1,9 C -1,9 C 92 % 1031,1 hPa 0,0 l/m 1,6 km/h (1 Bft) NO 45 0 min 0,000 mm 0 W/m -3,0 C -1,9 C 4,8 km/h (1 Bft) 100 %
15.01.2022 04:10 -1,9 C -1,9 C -1,9 C 92 % 1031,1 hPa 0,0 l/m 0,0 km/h (0 Bft) N 0 0 min 0,000 mm 0 W/m -3,0 C -1,9 C 0,0 km/h (0 Bft) 100 %
15.01.2022 04:20 -1,9 C -1,9 C -1,9 C 92 % 1030,9 hPa 0,0 l/m 0,0 km/h (0 Bft) N 0 0 min 0,000 mm 0 W/m -3,0 C -1,9 C 0,0 km/h (0 Bft) 97 %
15.01.2022 04:30 -1,8 C -1,9 C -1,8 C 92 % 1030,8 hPa 0,0 l/m 0,0 km/h (0 Bft) N 0 0 min 0,000 mm 0 W/m -2,9 C -1,8 C 0,0 km/h (0 Bft) 89 %
15.01.2022 04:40 -1,8 C -1,8 C -1,8 C 92 % 1030,9 hPa 0,0 l/m 0,0 km/h (0 Bft) N 0 0 min 0,000 mm 0 W/m -2,9 C -1,8 C 0,0 km/h (0 Bft) 100 %
15.01.2022 04:50 -1,8 C -1,8 C -1,8 C 92 % 1030,8 hPa 0,0 l/m 0,0 km/h (0 Bft) N 0 0 min 0,000 mm 0 W/m -2,9 C -1,8 C 0,0 km/h (0 Bft) 100 %
15.01.2022 05:00 -1,7 C -1,8 C -1,7 C 92 % 1030,6 hPa 0,0 l/m 0,0 km/h (0 Bft) N 0 0 min 0,000 mm 0 W/m -2,8 C -1,7 C 0,0 km/h (0 Bft) 100 %
15.01.2022 05:10 -1,7 C -1,7 C -1,7 C 92 % 1030,6 hPa 0,0 l/m 0,0 km/h (0 Bft) N 0 0 min 0,000 mm 0 W/m -2,8 C -1,7 C 0,0 km/h (0 Bft) 100 %
15.01.2022 05:20 -1,5 C -1,7 C -1,5 C 92 % 1030,5 hPa 0,0 l/m 0,0 km/h (0 Bft) N 0 0 min 0,000 mm 0 W/m -2,6 C -1,5 C 0,0 km/h (0 Bft) 100 %
15.01.2022 05:30 -1,4 C -1,5 C -1,4 C 92 % 1030,5 hPa 0,0 l/m 0,0 km/h (0 Bft) N 0 0 min 0,000 mm 0 W/m -2,5 C -1,4 C 0,0 km/h (0 Bft) 100 %
15.01.2022 05:40 -1,3 C -1,4 C -1,3 C 92 % 1030,6 hPa 0,0 l/m 0,0 km/h (0 Bft) N 0 0 min 0,000 mm 0 W/m -2,4 C -1,3 C 0,0 km/h (0 Bft) 92 %
15.01.2022 05:50 -1,2 C -1,3 C -1,2 C 92 % 1030,6 hPa 0,0 l/m 0,0 km/h (0 Bft) N 0 0 min 0,000 mm 0 W/m -2,3 C -1,2 C 0,0 km/h (0 Bft) 100 %
15.01.2022 06:00 -1,2 C -1,2 C -1,2 C 92 % 1030,7 hPa 0,0 l/m 0,0 km/h (0 Bft) NO 45 0 min 0,000 mm 0 W/m -2,3 C -1,2 C 4,8 km/h (1 Bft) 100 %
15.01.2022 06:10 -1,1 C -1,2 C -1,1 C 92 % 1030,7 hPa 0,0 l/m 1,6 km/h (1 Bft) NO 45 0 min 0,000 mm 0 W/m -2,2 C -1,1 C 4,8 km/h (1 Bft) 100 %
15.01.2022 06:20 -1,1 C -1,1 C -1,1 C 92 % 1030,6 hPa 0,0 l/m 1,6 km/h (1 Bft) NO 45 0 min 0,000 mm 0 W/m -2,2 C -1,1 C 6,4 km/h (2 Bft) 100 %
15.01.2022 06:30 -1,1 C -1,1 C -1,1 C 92 % 1030,6 hPa 0,0 l/m 1,6 km/h (1 Bft) NO 45 0 min 0,000 mm 0 W/m -2,2 C -1,1 C 6,4 km/h (2 Bft) 100 %
15.01.2022 06:40 -1,1 C -1,1 C -1,1 C 92 % 1030,5 hPa 0,0 l/m 1,6 km/h (1 Bft) NO 45 0 min 0,000 mm 0 W/m -2,2 C -1,1 C 6,4 km/h (2 Bft) 99 %
15.01.2022 06:50 -1,1 C -1,1 C -1,1 C 92 % 1030,5 hPa 0,0 l/m 0,0 km/h (0 Bft) N 0 0 min 0,000 mm 0 W/m -2,2 C -1,1 C 0,0 km/h (0 Bft) 100 %
15.01.2022 07:00 -1,1 C -1,1 C -1,1 C 92 % 1030,5 hPa 0,0 l/m 0,0 km/h (0 Bft) N 0 0 min 0,000 mm 0 W/m -2,2 C -1,1 C 0,0 km/h (0 Bft) 90 %
15.01.2022 07:10 -1,0 C -1,1 C -1,0 C 92 % 1030,4 hPa 0,0 l/m 0,0 km/h (0 Bft) NO 45 0 min 0,000 mm 0 W/m -2,1 C -1,0 C 4,8 km/h (1 Bft) 100 %
15.01.2022 07:20 -1,0 C -1,0 C -1,0 C 92 % 1030,4 hPa 0,0 l/m 0,0 km/h (0 Bft) N 0 0 min 0,000 mm 0 W/m -2,1 C -1,0 C 0,0 km/h (0 Bft) 100 %
15.01.2022 07:30 -1,0 C -1,0 C -0,9 C 92 % 1030,5 hPa 0,0 l/m 0,0 km/h (0 Bft) N 0 0 min 0,000 mm 0 W/m -2,1 C -1,0 C 0,0 km/h (0 Bft) 100 %
15.01.2022 07:40 -1,0 C -1,0 C -0,9 C 92 % 1030,3 hPa 0,0 l/m 0,0 km/h (0 Bft) NO 45 0 min 0,000 mm 0 W/m -2,1 C -1,0 C 4,8 km/h (1 Bft) 100 %
15.01.2022 07:50 -1,0 C -1,0 C -0,9 C 92 % 1030,3 hPa 0,0 l/m 0,0 km/h (0 Bft) NO 45 0 min 0,000 mm 0 W/m -2,1 C -1,0 C 3,2 km/h (1 Bft) 100 %
15.01.2022 08:00 -1,0 C -1,0 C -0,9 C 92 % 1030,2 hPa 0,0 l/m 0,0 km/h (0 Bft) N 0 0 min 0,000 mm 0 W/m -2,1 C -1,0 C 0,0 km/h (0 Bft) 100 %
15.01.2022 08:10 -1,1 C -1,1 C -1,0 C 92 % 1030,3 hPa 0,0 l/m 0,0 km/h (0 Bft) N 0 0 min 0,000 mm 0 W/m -2,2 C -1,1 C 0,0 km/h (0 Bft) 100 %
15.01.2022 08:20 -1,1 C -1,1 C -1,1 C 92 % 1030,3 hPa 0,0 l/m 0,0 km/h (0 Bft) NO 45 0 min 0,000 mm 0 W/m -2,2 C -1,1 C 3,2 km/h (1 Bft) 91 %
15.01.2022 08:30 -1,1 C -1,1 C -1,1 C 92 % 1030,1 hPa 0,0 l/m 0,0 km/h (0 Bft) NO 45 0 min 0,000 mm 7 W/m -2,2 C -1,1 C 4,8 km/h (1 Bft) 100 %
15.01.2022 08:40 -1,1 C -1,1 C -1,1 C 92 % 1030,2 hPa 0,0 l/m 0,0 km/h (0 Bft) N 0 0 min 0,000 mm 11 W/m -2,2 C -1,1 C 0,0 km/h (0 Bft) 100 %
15.01.2022 08:50 -1,1 C -1,1 C -1,1 C 92 % 1030,3 hPa 0,0 l/m 0,0 km/h (0 Bft) NO 45 0 min 0,000 mm 18 W/m -2,2 C -1,1 C 3,2 km/h (1 Bft) 100 %
15.01.2022 09:00 -1,0 C -1,1 C -1,0 C 92 % 1030,2 hPa 0,0 l/m 0,0 km/h (0 Bft) N 0 0 min 0,000 mm 25 W/m -2,1 C -1,0 C 0,0 km/h (0 Bft) 100 %
15.01.2022 09:10 -1,0 C -1,0 C -1,0 C 92 % 1030,1 hPa 0,0 l/m 0,0 km/h (0 Bft) N 0 0 min 0,000 mm 33 W/m -2,1 C -1,0 C 0,0 km/h (0 Bft) 100 %
15.01.2022 09:20 -0,9 C -1,0 C -0,9 C 92 % 1030,1 hPa 0,0 l/m 0,0 km/h (0 Bft) N 0 0 min 0,000 mm 42 W/m -2,0 C -0,9 C 0,0 km/h (0 Bft) 100 %
15.01.2022 09:30 -0,9 C -0,9 C -0,9 C 92 % 1029,9 hPa 0,0 l/m 0,0 km/h (0 Bft) NO 45 0 min 0,000 mm 46 W/m -2,0 C -0,9 C 1,6 km/h (1 Bft) 100 %
15.01.2022 09:40 -0,8 C -0,9 C -0,8 C 92 % 1030,0 hPa 0,0 l/m 0,0 km/h (0 Bft) NO 45 0 min 0,000 mm 56 W/m -1,9 C -0,8 C 3,2 km/h (1 Bft) 89 %
15.01.2022 09:50 -0,7 C -0,8 C -0,7 C 92 % 1029,9 hPa 0,0 l/m 0,0 km/h (0 Bft) N 0 0 min 0,000 mm 53 W/m -1,8 C -0,7 C 0,0 km/h (0 Bft) 100 %
15.01.2022 10:00 -0,6 C -0,7 C -0,6 C 92 % 1029,9 hPa 0,0 l/m 0,0 km/h (0 Bft) N 0 0 min 0,025 mm 62 W/m -1,7 C -0,6 C 0,0 km/h (0 Bft) 100 %
15.01.2022 10:10 -0,6 C -0,6 C -0,6 C 92 % 1030,0 hPa 0,0 l/m 0,0 km/h (0 Bft) N 0 0 min 0,000 mm 77 W/m -1,7 C -0,6 C 0,0 km/h (0 Bft) 100 %
15.01.2022 10:20 -0,4 C -0,6 C -0,4 C 92 % 1030,0 hPa 0,0 l/m 0,0 km/h (0 Bft) NO 45 0 min 0,000 mm 76 W/m -1,5 C -0,4 C 3,2 km/h (1 Bft) 100 %
15.01.2022 10:30 -0,4 C -0,4 C -0,4 C 92 % 1029,9 hPa 0,0 l/m 0,0 km/h (0 Bft) N 0 0 min 0,000 mm 81 W/m -1,5 C -0,4 C 0,0 km/h (0 Bft) 100 %
15.01.2022 10:40 -0,3 C -0,4 C -0,3 C 92 % 1029,9 hPa 0,0 l/m 0,0 km/h (0 Bft) NO 45 0 min 0,000 mm 83 W/m -1,4 C -0,3 C 3,2 km/h (1 Bft) 100 %
15.01.2022 10:50 -0,3 C -0,3 C -0,3 C 92 % 1029,8 hPa 0,0 l/m 0,0 km/h (0 Bft) N 0 0 min 0,000 mm 84 W/m -1,4 C -0,3 C 0,0 km/h (0 Bft) 100 %
15.01.2022 11:00 -0,2 C -0,3 C -0,2 C 92 % 1029,8 hPa 0,0 l/m 0,0 km/h (0 Bft) NO 49 0 min 0,026 mm 91 W/m -1,3 C -0,2 C 0,0 km/h (0 Bft) 100 %
15.01.2022 11:10 -0,1 C -0,2 C -0,1 C 92 % 1029,8 hPa 0,0 l/m 0,2 km/h (0 Bft) NO 49 0 min 0,000 mm 88 W/m -1,2 C -0,1 C 4,8 km/h (1 Bft) 99 %
15.01.2022 11:20 -0,1 C -0,2 C -0,1 C 92 % 1029,5 hPa 0,0 l/m 0,0 km/h (0 Bft) NO 49 0 min 0,000 mm 93 W/m -1,2 C -0,1 C 0,0 km/h (0 Bft) 100 %
15.01.2022 11:30 0,0 C -0,1 C 0,0 C 92 % 1029,5 hPa 0,0 l/m 0,1 km/h (0 Bft) NO 50 0 min 0,000 mm 91 W/m -1,1 C 0,0 C 3,2 km/h (1 Bft) 100 %
15.01.2022 11:40 0,1 C 0,0 C 0,1 C 92 % 1029,4 hPa 0,0 l/m 0,0 km/h (0 Bft) NO 49 0 min 0,000 mm 100 W/m -1,0 C 0,1 C 0,0 km/h (0 Bft) 100 %
15.01.2022 11:50 0,2 C 0,1 C 0,2 C 92 % 1029,2 hPa 0,0 l/m 0,0 km/h (0 Bft) NO 49 0 min 0,000 mm 93 W/m -0,9 C 0,2 C 0,0 km/h (0 Bft) 100 %
15.01.2022 12:00 0,2 C 0,2 C 0,2 C 92 % 1029,2 hPa 0,0 l/m 0,0 km/h (0 Bft) NO 49 0 min 0,025 mm 88 W/m -0,9 C 0,2 C 0,0 km/h (0 Bft) 100 %
15.01.2022 12:10 0,3 C 0,2 C 0,3 C 92 % 1029,1 hPa 0,0 l/m 0,2 km/h (0 Bft) NO 49 0 min 0,000 mm 90 W/m -0,8 C 0,3 C 3,2 km/h (1 Bft) 99 %
15.01.2022 12:20 0,3 C 0,3 C 0,3 C 92 % 1029,1 hPa 0,0 l/m 0,0 km/h (0 Bft) NO 49 0 min 0,000 mm 95 W/m -0,8 C 0,3 C 0,0 km/h (0 Bft) 100 %
15.01.2022 12:30 0,4 C 0,3 C 0,4 C 92 % 1029,1 hPa 0,0 l/m 0,3 km/h (0 Bft) NO 49 0 min 0,000 mm 88 W/m -0,7 C 0,4 C 3,2 km/h (1 Bft) 100 %
15.01.2022 12:40 0,5 C 0,4 C 0,5 C 92 % 1028,9 hPa 0,0 l/m 0,0 km/h (0 Bft) NO 49 0 min 0,000 mm 90 W/m -0,6 C 0,5 C 0,0 km/h (0 Bft) 99 %
15.01.2022 12:50 0,6 C 0,4 C 0,6 C 92 % 1028,9 hPa 0,0 l/m 0,0 km/h (0 Bft) NO 49 0 min 0,000 mm 88 W/m -0,5 C 0,6 C 0,0 km/h (0 Bft) 91 %
15.01.2022 13:00 0,6 C 0,6 C 0,6 C 92 % 1028,8 hPa 0,0 l/m 0,0 km/h (0 Bft) NO 49 0 min 0,026 mm 88 W/m -0,5 C 0,6 C 0,0 km/h (0 Bft) 100 %
15.01.2022 13:10 0,7 C 0,6 C 0,7 C 92 % 1028,7 hPa 0,0 l/m 0,0 km/h (0 Bft) NO 49 0 min 0,000 mm 86 W/m -0,4 C 0,7 C 0,0 km/h (0 Bft) 100 %
15.01.2022 13:20 0,7 C 0,7 C 0,7 C 92 % 1028,6 hPa 0,0 l/m 0,3 km/h (0 Bft) O-NO 57 0 min 0,000 mm 81 W/m -0,4 C 0,7 C 6,4 km/h (2 Bft) 100 %
15.01.2022 13:30 0,7 C 0,7 C 0,7 C 92 % 1028,5 hPa 0,0 l/m 0,3 km/h (0 Bft) O-NO 57 0 min 0,000 mm 76 W/m -0,4 C 0,7 C 4,8 km/h (1 Bft) 100 %
15.01.2022 13:40 0,7 C 0,7 C 0,7 C 92 % 1028,2 hPa 0,0 l/m 0,3 km/h (0 Bft) NO 55 0 min 0,000 mm 69 W/m -0,4 C 0,7 C 4,8 km/h (1 Bft) 100 %
15.01.2022 13:50 0,7 C 0,7 C 0,7 C 92 % 1028,0 hPa 0,0 l/m 0,9 km/h (0 Bft) NO 53 0 min 0,000 mm 72 W/m -0,4 C 0,7 C 6,4 km/h (2 Bft) 100 %
15.01.2022 14:00 0,7 C 0,7 C 0,7 C 92 % 1028,0 hPa 0,0 l/m 0,2 km/h (0 Bft) NO 51 0 min 0,025 mm 63 W/m -0,4 C 0,7 C 6,4 km/h (2 Bft) 100 %
15.01.2022 14:10 0,7 C 0,7 C 0,7 C 92 % 1028,0 hPa 0,0 l/m 0,0 km/h (0 Bft) NO 51 0 min 0,000 mm 70 W/m -0,4 C 0,7 C 0,0 km/h (0 Bft) 100 %
15.01.2022 14:20 0,7 C 0,7 C 0,8 C 92 % 1027,8 hPa 0,0 l/m 0,8 km/h (0 Bft) NO 50 0 min 0,000 mm 65 W/m -0,4 C 0,7 C 4,8 km/h (1 Bft) 100 %
15.01.2022 14:30 0,7 C 0,7 C 0,7 C 92 % 1027,6 hPa 0,0 l/m 0,0 km/h (0 Bft) NO 50 0 min 0,000 mm 62 W/m -0,4 C 0,7 C 0,0 km/h (0 Bft) 100 %
15.01.2022 14:40 0,7 C 0,7 C 0,7 C 92 % 1027,6 hPa 0,0 l/m 0,0 km/h (0 Bft) NO 50 0 min 0,000 mm 70 W/m -0,4 C 0,7 C 0,0 km/h (0 Bft) 100 %
15.01.2022 14:50 0,7 C 0,7 C 0,7 C 92 % 1027,5 hPa 0,0 l/m 1,2 km/h (1 Bft) O-NO 59 0 min 0,000 mm 56 W/m -0,4 C 0,7 C 4,8 km/h (1 Bft) 100 %
15.01.2022 15:00 0,7 C 0,7 C 0,7 C 92 % 1027,4 hPa 0,0 l/m 0,1 km/h (0 Bft) O-NO 59 0 min 0,025 mm 47 W/m -0,4 C 0,7 C 3,2 km/h (1 Bft) 100 %
15.01.2022 15:10 0,7 C 0,7 C 0,7 C 92 % 1027,5 hPa 0,0 l/m 0,0 km/h (0 Bft) O-NO 59 0 min 0,000 mm 39 W/m -0,4 C 0,7 C 0,0 km/h (0 Bft) 91 %
15.01.2022 15:20 0,7 C 0,7 C 0,7 C 92 % 1027,4 hPa 0,0 l/m 0,4 km/h (0 Bft) O-NO 57 0 min 0,000 mm 35 W/m -0,4 C 0,7 C 4,8 km/h (1 Bft) 100 %
15.01.2022 15:30 0,7 C 0,7 C 0,7 C 92 % 1027,2 hPa 0,0 l/m 0,3 km/h (0 Bft) O-NO 62 0 min 0,000 mm 26 W/m -0,4 C 0,7 C 9,7 km/h (2 Bft) 100 %
15.01.2022 15:40 0,7 C 0,7 C 0,7 C 92 % 1027,2 hPa 0,0 l/m 0,0 km/h (0 Bft) O-NO 62 0 min 0,000 mm 18 W/m -0,4 C 0,7 C 0,0 km/h (0 Bft) 100 %
15.01.2022 15:50 0,7 C 0,7 C 0,7 C 92 % 1027,2 hPa 0,0 l/m 0,3 km/h (0 Bft) O-NO 62 0 min 0,000 mm 14 W/m -0,4 C 0,7 C 8,0 km/h (2 Bft) 100 %
15.01.2022 16:00 0,7 C 0,7 C 0,7 C 92 % 1027,3 hPa 0,0 l/m 0,3 km/h (0 Bft) N-NO 16 0 min 0,000 mm 11 W/m -0,4 C 0,7 C 9,7 km/h (2 Bft) 100 %
15.01.2022 16:10 0,6 C 0,6 C 0,7 C 92 % 1027,2 hPa 0,0 l/m 0,0 km/h (0 Bft) N-NO 17 0 min 0,000 mm 9 W/m -0,5 C 0,6 C 0,0 km/h (0 Bft) 100 %
15.01.2022 16:20 0,6 C 0,6 C 0,6 C 92 % 1027,2 hPa 0,0 l/m 0,0 km/h (0 Bft) N-NO 17 0 min 0,000 mm 5 W/m -0,5 C 0,6 C 0,0 km/h (0 Bft) 100 %
15.01.2022 16:30 0,6 C 0,6 C 0,6 C 92 % 1027,2 hPa 0,0 l/m 0,1 km/h (0 Bft) NO 47 0 min 0,000 mm 0 W/m -0,5 C 0,6 C 3,2 km/h (1 Bft) 100 %
15.01.2022 16:40 0,6 C 0,6 C 0,6 C 92 % 1027,2 hPa 0,0 l/m 0,1 km/h (0 Bft) NO 46 0 min 0,000 mm 0 W/m -0,5 C 0,6 C 4,8 km/h (1 Bft) 100 %
15.01.2022 16:50 0,5 C 0,5 C 0,6 C 92 % 1027,1 hPa 0,0 l/m 0,0 km/h (0 Bft) NO 47 0 min 0,000 mm 0 W/m -0,6 C 0,5 C 0,0 km/h (0 Bft) 100 %
15.01.2022 17:00 0,4 C 0,4 C 0,5 C 92 % 1027,2 hPa 0,0 l/m 0,5 km/h (0 Bft) O 87 0 min 0,000 mm 0 W/m -0,7 C 0,4 C 6,4 km/h (2 Bft) 100 %
15.01.2022 17:10 0,4 C 0,4 C 0,4 C 92 % 1027,2 hPa 0,0 l/m 0,4 km/h (0 Bft) O-SO 111 0 min 0,000 mm 0 W/m -0,7 C 0,4 C 8,0 km/h (2 Bft) 100 %
15.01.2022 17:20 0,4 C 0,4 C 0,4 C 92 % 1027,2 hPa 0,0 l/m 0,2 km/h (0 Bft) O-SO 109 0 min 0,000 mm 0 W/m -0,7 C 0,4 C 3,2 km/h (1 Bft) 90 %
15.01.2022 17:30 0,4 C 0,4 C 0,4 C 92 % 1027,2 hPa 0,0 l/m 0,1 km/h (0 Bft) O-SO 111 0 min 0,000 mm 0 W/m -0,7 C 0,4 C 4,8 km/h (1 Bft) 100 %
15.01.2022 17:40 0,4 C 0,4 C 0,4 C 92 % 1027,1 hPa 0,0 l/m 0,0 km/h (0 Bft) O-SO 112 0 min 0,000 mm 0 W/m -0,7 C 0,4 C 3,2 km/h (1 Bft) 100 %
15.01.2022 17:50 0,4 C 0,4 C 0,4 C 92 % 1027,0 hPa 0,0 l/m 0,2 km/h (0 Bft) O-SO 103 0 min 0,000 mm 0 W/m -0,7 C 0,4 C 6,4 km/h (2 Bft) 100 %
15.01.2022 18:00 0,4 C 0,4 C 0,4 C 92 % 1027,0 hPa 0,0 l/m 0,0 km/h (0 Bft) O 101 0 min 0,000 mm 0 W/m -0,7 C 0,4 C 0,0 km/h (0 Bft) 99 %
15.01.2022 18:10 0,4 C 0,4 C 0,5 C 92 % 1026,9 hPa 0,0 l/m 0,5 km/h (0 Bft) O 97 0 min 0,000 mm 0 W/m -0,7 C 0,4 C 4,8 km/h (1 Bft) 99 %
15.01.2022 18:20 0,5 C 0,4 C 0,5 C 92 % 1026,9 hPa 0,0 l/m 0,1 km/h (0 Bft) O 97 0 min 0,000 mm 0 W/m -0,6 C 0,5 C 3,2 km/h (1 Bft) 100 %
15.01.2022 18:30 0,5 C 0,5 C 0,5 C 92 % 1027,0 hPa 0,0 l/m 0,0 km/h (0 Bft) O 97 0 min 0,000 mm 0 W/m -0,6 C 0,5 C 0,0 km/h (0 Bft) 100 %
15.01.2022 18:40 0,5 C 0,5 C 0,5 C 92 % 1027,0 hPa 0,0 l/m 0,6 km/h (0 Bft) O 96 0 min 0,000 mm 0 W/m -0,6 C 0,5 C 4,8 km/h (1 Bft) 99 %
15.01.2022 18:50 0,5 C 0,5 C 0,5 C 92 % 1026,7 hPa 0,0 l/m 0,3 km/h (0 Bft) O 97 0 min 0,000 mm 0 W/m -0,6 C 0,5 C 3,2 km/h (1 Bft) 90 %
15.01.2022 19:00 0,5 C 0,5 C 0,5 C 92 % 1026,7 hPa 0,0 l/m 0,0 km/h (0 Bft) O 97 0 min 0,000 mm 0 W/m -0,6 C 0,5 C 1,6 km/h (1 Bft) 100 %
15.01.2022 19:10 0,5 C 0,5 C 0,5 C 92 % 1026,6 hPa 0,0 l/m 0,0 km/h (0 Bft) O 96 0 min 0,000 mm 0 W/m -0,6 C 0,5 C 0,0 km/h (0 Bft) 99 %
15.01.2022 19:20 0,5 C 0,5 C 0,5 C 92 % 1026,7 hPa 0,0 l/m 0,0 km/h (0 Bft) O 96 0 min 0,000 mm 0 W/m -0,6 C 0,5 C 0,0 km/h (0 Bft) 100 %
15.01.2022 19:30 0,5 C 0,5 C 0,5 C 92 % 1026,6 hPa 0,0 l/m 0,0 km/h (0 Bft) O 96 0 min 0,000 mm 0 W/m -0,6 C 0,5 C 0,0 km/h (0 Bft) 90 %
15.01.2022 19:40 0,5 C 0,5 C 0,5 C 92 % 1026,5 hPa 0,0 l/m 0,3 km/h (0 Bft) O 96 0 min 0,000 mm 0 W/m -0,6 C 0,5 C 3,2 km/h (1 Bft) 100 %
15.01.2022 19:50 0,4 C 0,4 C 0,5 C 92 % 1026,4 hPa 0,0 l/m 1,1 km/h (1 Bft) O 96 0 min 0,000 mm 0 W/m -0,7 C 0,4 C 6,4 km/h (2 Bft) 99 %
15.01.2022 20:00 0,4 C 0,4 C 0,5 C 92 % 1026,3 hPa 0,0 l/m 0,1 km/h (0 Bft) O 87 0 min 0,000 mm 0 W/m -0,7 C 0,4 C 3,2 km/h (1 Bft) 100 %
15.01.2022 20:10 0,4 C 0,4 C 0,4 C 92 % 1026,3 hPa 0,0 l/m 0,0 km/h (0 Bft) O 88 0 min 0,000 mm 0 W/m -0,7 C 0,4 C 0,0 km/h (0 Bft) 100 %
15.01.2022 20:20 0,4 C 0,4 C 0,4 C 92 % 1026,7 hPa 0,0 l/m 0,0 km/h (0 Bft) O 88 0 min 0,000 mm 0 W/m -0,7 C 0,4 C 0,0 km/h (0 Bft) 100 %
15.01.2022 20:30 0,4 C 0,4 C 0,4 C 92 % 1027,7 hPa 0,0 l/m 0,0 km/h (0 Bft) O 88 0 min 0,000 mm 0 W/m -0,7 C 0,4 C 0,0 km/h (0 Bft) 100 %
15.01.2022 20:40 0,4 C 0,4 C 0,4 C 92 % 1026,5 hPa 0,0 l/m 0,0 km/h (0 Bft) O 88 0 min 0,000 mm 0 W/m -0,7 C 0,4 C 0,0 km/h (0 Bft) 100 %
15.01.2022 20:50 0,4 C 0,4 C 0,4 C 92 % 1025,2 hPa 0,0 l/m 0,2 km/h (0 Bft) O 86 0 min 0,000 mm 0 W/m -0,7 C 0,4 C 3,2 km/h (1 Bft) 99 %
15.01.2022 21:00 0,3 C 0,3 C 0,4 C 92 % 1025,6 hPa 0,0 l/m 0,0 km/h (0 Bft) O 86 0 min 0,000 mm 0 W/m -0,8 C 0,3 C 0,0 km/h (0 Bft) 98 %
15.01.2022 21:10 0,3 C 0,3 C 0,3 C 92 % 1025,8 hPa 0,0 l/m 0,0 km/h (0 Bft) N 0 0 min 0,000 mm 0 W/m -0,8 C 0,3 C 0,0 km/h (0 Bft) 98 %
15.01.2022 21:20 0,3 C 0,3 C 0,3 C 92 % 1025,4 hPa 0,0 l/m 0,0 km/h (0 Bft) N 0 0 min 0,000 mm 0 W/m -0,8 C 0,3 C 0,0 km/h (0 Bft) 98 %
15.01.2022 21:30 0,2 C 0,2 C 0,3 C 92 % 1025,3 hPa 0,0 l/m 0,0 km/h (0 Bft) N 0 0 min 0,000 mm 0 W/m -0,9 C 0,2 C 0,0 km/h (0 Bft) 99 %
15.01.2022 21:40 0,2 C 0,2 C 0,3 C 92 % 1025,6 hPa 0,0 l/m 0,0 km/h (0 Bft) N 0 0 min 0,000 mm 0 W/m -0,9 C 0,2 C 0,0 km/h (0 Bft) 91 %
15.01.2022 21:50 0,2 C 0,2 C 0,3 C 92 % 1025,8 hPa 0,0 l/m 0,0 km/h (0 Bft) N 0 0 min 0,000 mm 0 W/m -0,9 C 0,2 C 0,0 km/h (0 Bft) 100 %
15.01.2022 22:00 0,2 C 0,2 C 0,2 C 92 % 1025,9 hPa 0,0 l/m 0,0 km/h (0 Bft) N 0 0 min 0,000 mm 0 W/m -0,9 C 0,2 C 0,0 km/h (0 Bft) 100 %
15.01.2022 22:10 0,2 C 0,2 C 0,2 C 92 % 1025,3 hPa 0,0 l/m 0,0 km/h (0 Bft) O-SO 112 0 min 0,000 mm 0 W/m -0,9 C 0,2 C 6,4 km/h (2 Bft) 99 %
15.01.2022 22:20 0,1 C 0,1 C 0,2 C 92 % 1025,3 hPa 0,0 l/m 0,0 km/h (0 Bft) N 0 0 min 0,000 mm 0 W/m -1,0 C 0,1 C 0,0 km/h (0 Bft) 100 %
15.01.2022 22:30 0,1 C 0,1 C 0,1 C 92 % 1025,7 hPa 0,0 l/m 0,0 km/h (0 Bft) N 0 0 min 0,000 mm 0 W/m -1,0 C 0,1 C 0,0 km/h (0 Bft) 99 %
15.01.2022 22:40 0,1 C 0,1 C 0,1 C 92 % 1025,6 hPa 0,0 l/m 0,0 km/h (0 Bft) N 0 0 min 0,000 mm 0 W/m -1,0 C 0,1 C 0,0 km/h (0 Bft) 99 %
15.01.2022 22:50 0,1 C 0,1 C 0,1 C 92 % 1025,6 hPa 0,0 l/m 0,0 km/h (0 Bft) N 0 0 min 0,000 mm 0 W/m -1,0 C 0,1 C 0,0 km/h (0 Bft) 99 %
15.01.2022 23:00 0,1 C 0,1 C 0,1 C 92 % 1025,5 hPa 0,0 l/m 0,0 km/h (0 Bft) N 0 0 min 0,000 mm 0 W/m -1,0 C 0,1 C 0,0 km/h (0 Bft) 100 %
15.01.2022 23:10 0,1 C 0,1 C 0,1 C 92 % 1025,6 hPa 0,0 l/m 0,0 km/h (0 Bft) O 90 0 min 0,000 mm 0 W/m -1,0 C 0,1 C 8,0 km/h (2 Bft) 100 %
15.01.2022 23:20 0,0 C 0,0 C 0,1 C 92 % 1025,4 hPa 0,0 l/m 0,0 km/h (0 Bft) N 0 0 min 0,000 mm 0 W/m -1,1 C 0,0 C 0,0 km/h (0 Bft) 100 %
15.01.2022 23:30 -0,1 C -0,1 C 0,0 C 92 % 1025,4 hPa 0,0 l/m 0,0 km/h (0 Bft) O 90 0 min 0,000 mm 0 W/m -1,2 C -0,1 C 4,8 km/h (1 Bft) 100 %
15.01.2022 23:40 -0,2 C -0,2 C -0,1 C 92 % 1025,6 hPa 0,0 l/m 0,0 km/h (0 Bft) O 90 0 min 0,000 mm 0 W/m -1,3 C -0,2 C 6,4 km/h (2 Bft) 100 %
15.01.2022 23:50 -0,2 C -0,2 C -0,1 C 92 % 1025,5 hPa 0,0 l/m 0,0 km/h (0 Bft) O 90 0 min 0,000 mm 0 W/m -1,3 C -0,2 C 3,2 km/h (1 Bft) 100 %
_ Min-Zeit 01:10 01:10 01:20 00:50 20:50 - 00:00 - - - - - 01:10 01:10 00:00 04:30
Minimum _ -3,6 C -3,6 C -3,6 C 92 % 1025,2 hPa - 0,0 km/h (0 Bft) - - - - - -4,7 C -3,6 C 0,0 km/h (0 Bft) 89 %
_ Max-Zeit 14:20 13:20 14:20 00:00 00:00 00:00 02:40 - - 00:00 11:00 11:40 13:10 13:10 15:30 00:00
Maximum _ 0,8 C 0,7 C 0,8 C 93 % 1032,4 hPa 0,0 l/m 3,2 km/h
O-SO (1 Bft)
- - 0 min 0,026 mm 100 W/m -0,4 C 0,7 C 9,7 km/h
O-NO (2 Bft)
100 %
Durchschnitt _ -0,6 C -0,6 C -0,5 C 92 % 1028,9 hPa #0,0 l/m 0,2 km/h (0 Bft) NO - #0 min. #0,152 mm 61 W/m -1,7 C -0,6 C 2,1 km/h (1 Bft) 99 %
PRIVATE WETTERSTATION BILLIGHEIM-ALLFELD - www.neckar-odenwald-wetter.de - Holger Sonntag